Weather History for Akron Canton, OH

Change the Weather History Date:

Wednesday, September 28, 2011

  Actual Average Record
Temperature  
Mean Temperature 62 °F 58 °F  
Max Temperature 69 °F 68 °F 88 °F (1959)
Min Temperature 55 °F 49 °F 33 °F (1942)
Degree Days  
Heating Degree Days 3 8  
Month to date heating degree days 83 102  
Since 1 July heating degree days 83 122  
Cooling Degree Days 0 1  
Month to date cooling degree days 82 63  
Year to date cooling degree days 903 645  
Growing Degree Days 10 (Base 50)    
Moisture  
Dew Point 51 °F    
Average Humidity 69    
Maximum Humidity 86    
Minimum Humidity 52    
Precipitation  
Precipitation 0.02 in 0.11 in 1.29 in (1996)
Month to date precipitation 3.97 3.24  
Year to date precipitation 43.34 30.44  
Snow  
Snow 0.00 in 0.00 in - ()
Month to date snowfall 0.0 0.0  
Since 1 July snowfall 0.0 0.0  
Since 1 September snowfall 0.0 0.0  
Snow Depth 0.00 in    
Sea Level Pressure  
Sea Level Pressure 29.84 in    
Wind  
Wind Speed 7 mph (SSW)    
Max Wind Speed 17 mph    
Max Gust Speed 22 mph    
Visibility 9 miles    
Events      
T = Trace of Precipitation, MM = Missing Value Source: NWS Daily Summary

Daily Weather History Graph

Daily Weather History Graph

Search for Another Location

Airport:

Trip Planner

Search our weather history database for the weather conditions in past years. The results will help you decide how hot, cold, wet, or windy it might be!

Date:

Astronomy

Sep. 28, 2011 Rise Set
Actual Time 7:19 AM EDT 7:13 PM EDT
Civil Twilight 6:51 AM EDT 7:40 PM EDT
Nautical Twilight 6:19 AM EDT 8:12 PM EDT
Astronomical Twilight 5:47 AM EDT 8:44 PM EDT
Moon 8:48 AM EDT (9/28) 7:40 PM EDT (9/28)
Length of Visible Light 12h 48m
Length of Day
11h 54m
New Moon, 2% of the Moon is Illuminated
Sep 28
New Moon
Oct 3
First Quarter
Oct 11
Full
Oct 19
Last Quarter
Oct 26
New

Hourly Weather History & Observations

Time (EDT) Temp. Dew Point Humidity Pressure Visibility Wind Dir Wind Speed Gust Speed Precip Events Conditions
12:51 AM 60.1 °F 51.1 °F 72% 29.86 in 10.0 mi SE 3.5 mph - N/A   Overcast
1:51 AM 57.9 °F 52.0 °F 81% 29.85 in 7.0 mi SE 5.8 mph - N/A   Partly Cloudy
2:51 AM 57.9 °F 52.0 °F 81% 29.84 in 8.0 mi SE 4.6 mph - N/A   Mostly Cloudy
3:51 AM 57.0 °F 51.1 °F 81% 29.83 in 8.0 mi SE 6.9 mph - N/A   Scattered Clouds
4:51 AM 57.0 °F 51.1 °F 81% 29.83 in 8.0 mi SE 8.1 mph - N/A   Mostly Cloudy
5:51 AM 55.9 °F 50.0 °F 80% 29.84 in 8.0 mi ESE 5.8 mph - N/A   Scattered Clouds
6:51 AM 55.4 °F 50.0 °F 82% 29.85 in 7.0 mi SE 6.9 mph - N/A   Mostly Cloudy
7:51 AM 55.9 °F 51.1 °F 84% 29.86 in 6.0 mi SSE 5.8 mph - N/A   Haze
8:51 AM 57.0 °F 52.0 °F 83% 29.87 in 6.0 mi South 5.8 mph - N/A   Haze
9:51 AM 61.0 °F 53.1 °F 75% 29.86 in 7.0 mi South 6.9 mph - N/A   Scattered Clouds
10:51 AM 64.4 °F 53.6 °F 68% 29.87 in 10.0 mi SSE 6.9 mph - N/A   Scattered Clouds
11:51 AM 66.9 °F 53.1 °F 61% 29.85 in 10.0 mi SW 11.5 mph - N/A   Mostly Cloudy
12:06 PM 64.4 °F 51.8 °F 64% 29.86 in 10.0 mi SW 11.5 mph - N/A   Mostly Cloudy
12:51 PM 64.9 °F 48.9 °F 56% 29.84 in 10.0 mi SW 13.8 mph 20.7 mph N/A   Mostly Cloudy
1:51 PM 66.9 °F 48.0 °F 51% 29.82 in 10.0 mi SW 10.4 mph - N/A   Mostly Cloudy
2:51 PM 66.9 °F 48.9 °F 52% 29.81 in 10.0 mi SW 10.4 mph - N/A   Mostly Cloudy
3:51 PM 66.0 °F 48.9 °F 54% 29.81 in 10.0 mi SW 8.1 mph - N/A   Mostly Cloudy
4:51 PM 66.0 °F 48.0 °F 52% 29.81 in 10.0 mi WSW 9.2 mph - N/A   Mostly Cloudy
5:51 PM 62.1 °F 48.9 °F 62% 29.82 in 10.0 mi WNW 11.5 mph - N/A   Mostly Cloudy
6:51 PM 60.1 °F 50.0 °F 69% 29.83 in 10.0 mi WNW 4.6 mph - N/A   Mostly Cloudy
7:51 PM 59.0 °F 50.0 °F 72% 29.82 in 10.0 mi Calm Calm - N/A   Mostly Cloudy
8:51 PM 57.9 °F 51.1 °F 78% 29.82 in 10.0 mi WNW 3.5 mph - N/A   Mostly Cloudy
9:51 PM 57.9 °F 52.0 °F 81% 29.84 in 9.0 mi WSW 5.8 mph - N/A   Mostly Cloudy
10:51 PM 57.9 °F 52.0 °F 81% 29.82 in 10.0 mi Calm Calm - 0.02 in   Overcast
11:51 PM 57.0 °F 53.1 °F 87% 29.81 in 7.0 mi South 4.6 mph - N/A   Overcast